Midland, MI

3:50 AM EDT on July 28, 2017 (GMT -0400)
Barstow

Weather History for KIKW - May, 2013

Change the Weather History Date:

Saturday, May 4, 2013

  Actual Average (KMBS) Record (KMBS)
Temperature  
Mean Temperature 64 °F -  
Max Temperature 74 °F 62 °F 82 °F (2000)
Min Temperature 48 °F 42 °F 27 °F (2005)
Degree Days  
Heating Degree Days 2    
Growing Degree Days 14 (Base 50)    
Moisture  
Dew Point 44 °F    
Average Humidity 50    
Maximum Humidity 75    
Minimum Humidity 29    
Precipitation  
Precipitation 0.00 in - - ()
Sea Level Pressure  
Sea Level Pressure 30.10 in    
Wind  
Wind Speed 7 mph (East)    
Max Wind Speed 20 mph    
Max Gust Speed 25 mph    
Visibility 10 miles    
Events      
Averages and records for this station are not official NWS values.
T = Trace of Precipitation, MM = Missing Value Source: NWS Daily Summary

Daily Weather History Graph

Daily Weather History Graph

Search for Another Location

Airport or City:

Trip Planner

Search our weather history database for the weather conditions in past years. The results will help you decide how hot, cold, wet, or windy it might be!

Date:

Astronomy

May. 04, 2013 Rise Set
Actual Time 6:24 AM EDT 8:43 PM EDT
Civil Twilight 5:53 AM EDT 9:15 PM EDT
Nautical Twilight 5:13 AM EDT 9:54 PM EDT
Astronomical Twilight 4:29 AM EDT 10:39 PM EDT
Moon 3:33 AM EDT (5/4) 3:31 PM EDT (5/4)
Length of Visible Light 15h 22m
Length of Day
14h 18m
Waning Crescent, 27% of the Moon is Illuminated
May 4
Waning Crescent
May 9
New
May 18
First Quarter
May 25
Full
May 31
Last Quarter

Hourly Weather History & Observations

Time (EDT) Temp. Dew Point Humidity Pressure Visibility Wind Dir Wind Speed Gust Speed Precip Events Conditions
12:13 AM 58.1 °F 39.7 °F 50% 30.09 in 10.0 mi East 5.8 mph - N/A   Clear
12:34 AM 56.3 °F 41.0 °F 57% 30.09 in 10.0 mi East 4.6 mph - N/A   Clear
12:53 AM 57.0 °F 41.0 °F 55% 30.09 in 10.0 mi East 5.8 mph - N/A   Clear
1:13 AM 57.0 °F 41.7 °F 57% 30.09 in 10.0 mi East 5.8 mph - N/A   Clear
1:33 AM 57.0 °F 42.8 °F 59% 30.09 in 10.0 mi East 5.8 mph - N/A   Clear
1:53 AM 57.6 °F 42.8 °F 58% 30.09 in 10.0 mi East 5.8 mph - N/A   Clear
2:13 AM 59.7 °F 43.2 °F 54% 30.08 in 10.0 mi East 6.9 mph - N/A   Clear
2:33 AM 59.2 °F 43.3 °F 56% 30.08 in 10.0 mi East 6.9 mph - N/A   Clear
2:53 AM 58.8 °F 43.7 °F 57% 30.08 in 10.0 mi East 5.8 mph - N/A   Clear
3:12 AM 58.3 °F 43.9 °F 59% 30.08 in 10.0 mi East 6.9 mph - N/A   Clear
3:33 AM 57.7 °F 44.1 °F 60% 30.08 in 10.0 mi East 5.8 mph - N/A   Clear
3:53 AM 57.2 °F 44.2 °F 62% 30.08 in 10.0 mi East 5.8 mph - N/A   Clear
4:13 AM 57.2 °F 44.4 °F 62% 30.08 in 10.0 mi East 5.8 mph - N/A   Clear
4:33 AM 56.8 °F 44.6 °F 64% 30.09 in 10.0 mi East 5.8 mph - N/A   Clear
4:54 AM 55.6 °F 44.2 °F 66% 30.09 in 10.0 mi East 3.5 mph - N/A   Clear
5:13 AM 55.0 °F 44.4 °F 67% 30.09 in 10.0 mi Calm Calm - N/A   Clear
5:33 AM 54.5 °F 44.2 °F 68% 30.09 in 10.0 mi East 3.5 mph - N/A   Clear
5:54 AM 53.6 °F 44.6 °F 72% 30.09 in 10.0 mi East 3.5 mph - N/A   Clear
6:13 AM 53.2 °F 44.4 °F 72% 30.10 in 10.0 mi East 3.5 mph - N/A   Clear
6:33 AM 53.6 °F 44.6 °F 72% 30.10 in 10.0 mi East 3.5 mph - N/A   Clear
6:54 AM 53.4 °F 45.0 °F 73% 30.10 in 10.0 mi Calm Calm - N/A   Clear
7:13 AM 55.4 °F 46.4 °F 72% 30.11 in 10.0 mi East 3.5 mph - N/A   Clear
7:33 AM 57.0 °F 47.7 °F 71% 30.11 in 10.0 mi East 3.5 mph - N/A   Clear
7:54 AM 61.2 °F 47.7 °F 61% 30.12 in 10.0 mi ESE 3.5 mph - N/A   Clear
8:13 AM 63.1 °F 48.0 °F 58% 30.12 in 10.0 mi SE 6.9 mph - N/A   Clear
8:33 AM 64.2 °F 47.1 °F 54% 30.12 in 10.0 mi SSE 6.9 mph - N/A   Clear
8:53 AM 65.3 °F 47.5 °F 52% 30.12 in 10.0 mi SE 10.4 mph - N/A   Clear
9:13 AM 65.7 °F 47.7 °F 52% 30.12 in 10.0 mi SSE 9.2 mph - N/A   Clear
9:34 AM 66.6 °F 47.7 °F 51% 30.13 in 10.0 mi SE 8.1 mph - N/A   Clear
9:53 AM 66.7 °F 47.8 °F 51% 30.13 in 10.0 mi SE 6.9 mph - N/A   Clear
10:13 AM 67.3 °F 47.5 °F 49% 30.12 in 10.0 mi ESE 5.8 mph - N/A   Clear
10:33 AM 67.5 °F 47.3 °F 48% 30.12 in 10.0 mi SE 6.9 mph - N/A   Clear
10:53 AM 68.2 °F 46.6 °F 46% 30.12 in 10.0 mi SSE 3.5 mph - N/A   Clear
11:13 AM 68.4 °F 45.9 °F 44% 30.12 in 10.0 mi Calm Calm - N/A   Clear
11:33 AM 69.1 °F 46.0 °F 44% 30.12 in 10.0 mi Calm Calm - N/A   Clear
11:54 AM 70.2 °F 46.9 °F 43% 30.12 in 10.0 mi East 6.9 mph - N/A   Clear
12:13 PM 70.7 °F 47.7 °F 44% 30.12 in 10.0 mi East 8.1 mph - N/A   Clear
12:33 PM 71.2 °F 47.8 °F 43% 30.12 in 10.0 mi East 6.9 mph - N/A   Clear
12:54 PM 70.9 °F 47.3 °F 43% 30.12 in 10.0 mi ESE 10.4 mph 16.1 mph N/A   Clear
1:13 PM 71.6 °F 47.7 °F 43% 30.12 in 10.0 mi ESE 9.2 mph - N/A   Clear
1:38 PM 72.1 °F 46.6 °F 40% 30.11 in 10.0 mi East 8.1 mph - N/A   Clear
1:54 PM 72.7 °F 46.8 °F 40% 30.11 in 10.0 mi East 13.8 mph 20.7 mph N/A   Clear
2:13 PM 73.8 °F 46.6 °F 38% 30.10 in 10.0 mi ESE 10.4 mph - N/A   Clear
2:33 PM 73.6 °F 47.3 °F 39% 30.10 in 10.0 mi East 11.5 mph 19.6 mph N/A   Clear
2:54 PM 73.6 °F 46.8 °F 38% 30.10 in 10.0 mi ENE 18.4 mph 23.0 mph N/A   Clear
3:13 PM 73.8 °F 45.7 °F 37% 30.09 in 10.0 mi ENE 16.1 mph 21.9 mph N/A   Clear
3:33 PM 72.9 °F 45.0 °F 37% 30.09 in 10.0 mi ENE 16.1 mph 20.7 mph N/A   Clear
3:54 PM 74.1 °F 44.8 °F 35% 30.08 in 10.0 mi East 15.0 mph 20.7 mph N/A   Clear
4:13 PM 73.6 °F 43.3 °F 34% 30.08 in 10.0 mi East 16.1 mph - N/A   Clear
4:33 PM 73.4 °F 41.5 °F 32% 30.07 in 10.0 mi ENE 16.1 mph 19.6 mph N/A   Clear
4:53 PM 73.6 °F 41.7 °F 32% 30.07 in 10.0 mi East 13.8 mph - N/A   Clear
5:13 PM 74.3 °F 41.9 °F 31% 30.07 in 10.0 mi East 16.1 mph 21.9 mph N/A   Clear
5:34 PM 73.6 °F 40.8 °F 31% 30.07 in 10.0 mi East 17.3 mph 20.7 mph N/A   Clear
5:53 PM 72.7 °F 38.8 °F 29% 30.07 in 10.0 mi East 19.6 mph 25.3 mph N/A   Clear
6:13 PM 71.6 °F 37.4 °F 29% 30.07 in 10.0 mi ENE 16.1 mph 21.9 mph N/A   Clear
6:34 PM 72.0 °F 37.9 °F 29% 30.07 in 10.0 mi East 12.7 mph 17.3 mph N/A   Clear
6:53 PM 70.9 °F 38.7 °F 31% 30.07 in 10.0 mi ENE 13.8 mph - N/A   Clear
7:14 PM 69.3 °F 39.0 °F 33% 30.06 in 10.0 mi ENE 12.7 mph - N/A   Clear
7:33 PM 68.7 °F 39.2 °F 34% 30.07 in 10.0 mi East 11.5 mph - N/A   Clear
7:53 PM 68.4 °F 40.1 °F 36% 30.07 in 10.0 mi East 9.2 mph 16.1 mph N/A   Clear
8:14 PM 66.2 °F 41.4 °F 40% 30.07 in 10.0 mi East 9.2 mph - N/A   Clear
8:33 PM 64.8 °F 41.5 °F 43% 30.08 in 10.0 mi East 8.1 mph - N/A   Clear
8:53 PM 62.4 °F 41.5 °F 46% 30.08 in 10.0 mi East 5.8 mph - N/A   Clear
9:13 PM 61.5 °F 41.0 °F 47% 30.09 in 10.0 mi East 4.6 mph - N/A   Clear
9:33 PM 61.0 °F 40.5 °F 47% 30.09 in 10.0 mi East 5.8 mph - N/A   Clear
9:54 PM 59.5 °F 40.1 °F 49% 30.10 in 10.0 mi East 4.6 mph - N/A   Clear
10:13 PM 58.1 °F 40.1 °F 51% 30.11 in 10.0 mi East 3.5 mph - N/A   Clear
10:33 PM 57.2 °F 39.7 °F 52% 30.12 in 10.0 mi East 4.6 mph - N/A   Clear
10:54 PM 56.5 °F 39.4 °F 53% 30.12 in 10.0 mi Calm Calm - N/A   Clear
11:13 PM 53.8 °F 40.5 °F 61% 30.12 in 10.0 mi Calm Calm - N/A   Clear
11:34 PM 53.2 °F 41.2 °F 64% 30.12 in 10.0 mi Calm Calm - N/A   Clear
11:54 PM 48.6 °F 40.8 °F 75% 30.12 in 10.0 mi Calm Calm - N/A   Clear